• In Hungary
  • List of Countries
  • For 7 days
  • Water Temperature
  • Satellite Maps
  • Weather Map
  • News
  • Weather Widgets
  • user-avatar
    Login

    Hourly Weather Itatka

    Today, 25 May, Friday

    Time Temperature Precipitation Wind Pressure Humidity
    00:00 +1°C° 0 mm 3 mps 745 mmHg 64%
    01:00 0°C° 0 mm 4 mps 745 mmHg 65%
    02:00 0°C° 0 mm 4 mps 745 mmHg 66%
    03:00 0°C° 0 mm 4 mps 744 mmHg 67%
    04:00 +1°C° 0 mm 5 mps 744 mmHg 66%
    05:00 +2°C° 0 mm 5 mps 744 mmHg 66%
    06:00 +3°C° 0 mm 5 mps 743 mmHg 66%
    07:00 +6°C° 0 mm 5 mps 742 mmHg 61%
    08:00 +8°C° 0 mm 6 mps 742 mmHg 57%
    09:00 +10°C° 0 mm 6 mps 742 mmHg 52%
    10:00 +10°C° 0 mm 6 mps 741 mmHg 54%
    11:00 +10°C° 0 mm 6 mps 741 mmHg 56%
    12:00 +10°C° 0 mm 7 mps 741 mmHg 60%
    13:00 +9°C° 0.3 mm 6 mps 741 mmHg 67%
    14:00 +8°C° 0.3 mm 6 mps 741 mmHg 74%
    15:00 +7°C° 0.3 mm 5 mps 741 mmHg 81%
    16:00 +7°C° 0.2 mm 5 mps 741 mmHg 83%
    17:00 +6°C° 0.2 mm 4 mps 741 mmHg 85%
    18:00 +7°C° 0 mm 3 mps 741 mmHg 86%
    19:00 +7°C° 0 mm 3 mps 741 mmHg 89%
    20:00 +6°C° 0 mm 2 mps 741 mmHg 91%
    21:00 +6°C° 0 mm 2 mps 741 mmHg 93%
    22:00 +6°C° 0 mm 2 mps 741 mmHg 95%
    23:00 +6°C° 0 mm 2 mps 741 mmHg 96%

    Tomorrow, 26 May, Saturday

    Time Temperature Precipitation Wind Pressure Humidity
    00:00 +7°C° 0 mm 1 mps 741 mmHg 97%
    01:00 +7°C° 0.1 mm 1 mps 741 mmHg 97%
    02:00 +5°C° 0.1 mm 2 mps 741 mmHg 97%
    03:00 +5°C° 0.1 mm 2 mps 741 mmHg 97%
    04:00 +5°C° 0 mm 2 mps 742 mmHg 95%
    05:00 +5°C° 0 mm 2 mps 742 mmHg 93%
    06:00 +3°C° 0 mm 3 mps 742 mmHg 91%
    07:00 +4°C° 0 mm 3 mps 742 mmHg 84%
    08:00 +7°C° 0 mm 3 mps 742 mmHg 76%
    09:00 +8°C° 0 mm 3 mps 742 mmHg 69%
    10:00 +9°C° 0 mm 3 mps 743 mmHg 59%
    11:00 +11°C° 0 mm 3 mps 743 mmHg 49%
    12:00 +13°C° 0 mm 2 mps 743 mmHg 39%
    13:00 +14°C° 0 mm 2 mps 743 mmHg 37%
    14:00 +14°C° 0 mm 2 mps 743 mmHg 34%
    15:00 +14°C° 0 mm 1 mps 743 mmHg 32%
    16:00 +13°C° 0.1 mm 1 mps 742 mmHg 41%
    17:00 +12°C° 0.1 mm 1 mps 742 mmHg 49%
    18:00 +11°C° 0.1 mm 1 mps 742 mmHg 57%
    19:00 +9°C° 0.6 mm 1 mps 741 mmHg 66%
    20:00 +7°C° 0.6 mm 2 mps 741 mmHg 74%
    21:00 +6°C° 0.6 mm 2 mps 741 mmHg 83%
    22:00 +5°C° 0.3 mm 2 mps 740 mmHg 84%
    23:00 +4°C° 0.3 mm 3 mps 740 mmHg 85%

    Day after tomorrow, 27 May, Sunday

    Time Temperature Precipitation Wind Pressure Humidity
    00:00 +4°C° 0.3 mm 3 mps 739 mmHg 86%
    01:00 +3°C° 0.2 mm 3 mps 739 mmHg 86%
    02:00 +3°C° 0.2 mm 3 mps 739 mmHg 87%
    03:00 +3°C° 0.2 mm 3 mps 739 mmHg 88%
    04:00 +3°C° 0.4 mm 3 mps 739 mmHg 88%
    05:00 +3°C° 0.4 mm 3 mps 739 mmHg 88%
    06:00 +3°C° 0.4 mm 3 mps 740 mmHg 88%
    07:00 +3°C° 0.4 mm 3 mps 740 mmHg 87%
    08:00 +4°C° 0.4 mm 3 mps 740 mmHg 85%
    09:00 +4°C° 0.4 mm 3 mps 741 mmHg 84%
    10:00 +5°C° 0.2 mm 3 mps 741 mmHg 80%
    11:00 +5°C° 0.2 mm 3 mps 741 mmHg 77%
    12:00 +7°C° 0.2 mm 3 mps 742 mmHg 74%
    13:00 +7°C° 0.2 mm 2 mps 742 mmHg 72%
    14:00 +8°C° 0.2 mm 2 mps 742 mmHg 71%
    15:00 +9°C° 0.2 mm 1 mps 743 mmHg 70%
    16:00 +9°C° 0 mm 1 mps 743 mmHg 72%
    17:00 +8°C° 0 mm 1 mps 743 mmHg 74%
    18:00 +8°C° 0 mm 1 mps 743 mmHg 76%
    19:00 +7°C° 0 mm 1 mps 743 mmHg 81%
    20:00 +6°C° 0 mm 1 mps 743 mmHg 86%
    21:00 +5°C° 0 mm 1 mps 743 mmHg 91%
    22:00 +4°C° 0 mm 1 mps 743 mmHg 92%
    23:00 +3°C° 0 mm 2 mps 743 mmHg 93%

    28 May, Monday

    Time Temperature Precipitation Wind Pressure Humidity
    00:00 +3°C° 0 mm 2 mps 742 mmHg 94%
    01:00 +3°C° 0 mm 2 mps 742 mmHg 93%
    02:00 +2°C° 0 mm 3 mps 742 mmHg 91%
    03:00 +2°C° 0 mm 3 mps 741 mmHg 90%
    04:00 +2°C° 0.5 mm 3 mps 741 mmHg 88%
    05:00 +1°C° 0.5 mm 4 mps 740 mmHg 87%
    06:00 +3°C° 0.5 mm 4 mps 739 mmHg 85%
    07:00 +2°C° 1 mm 5 mps 739 mmHg 85%
    08:00 +3°C° 1 mm 5 mps 738 mmHg 85%
    09:00 +4°C° 1 mm 6 mps 737 mmHg 84%
    10:00 +7°C° 0.1 mm 6 mps 736 mmHg 81%
    11:00 +9°C° 0.1 mm 5 mps 735 mmHg 77%
    12:00 +12°C° 0.1 mm 5 mps 734 mmHg 74%
    13:00 +15°C° 0 mm 5 mps 733 mmHg 68%
    14:00 +19°C° 0 mm 4 mps 732 mmHg 62%
    15:00 +22°C° 0 mm 4 mps 731 mmHg 56%
    16:00 +21°C° 0.2 mm 3 mps 731 mmHg 61%
    17:00 +21°C° 0.2 mm 2 mps 730 mmHg 67%
    18:00 +22°C° 0.2 mm 1 mps 729 mmHg 72%
    19:00 +20°C° 0.1 mm 2 mps 730 mmHg 76%
    20:00 +19°C° 0.1 mm 2 mps 730 mmHg 79%
    21:00 +17°C° 0.1 mm 2 mps 730 mmHg 83%
    22:00 +17°C° 0.4 mm 3 mps 730 mmHg 85%
    23:00 +15°C° 0.4 mm 4 mps 731 mmHg 86%

    29 May, Tuesday

    Time Temperature Precipitation Wind Pressure Humidity
    00:00 +14°C° 0.4 mm 5 mps 731 mmHg 88%
    01:00 +13°C° 0.2 mm 6 mps 731 mmHg 86%
    02:00 +11°C° 0.2 mm 6 mps 731 mmHg 84%
    03:00 +9°C° 0.2 mm 7 mps 731 mmHg 82%
    04:00 +8°C° 0.1 mm 7 mps 732 mmHg 82%
    05:00 +7°C° 0.1 mm 8 mps 733 mmHg 81%
    06:00 +6°C° 0.1 mm 9 mps 733 mmHg 80%
    07:00 +7°C° 0 mm 8 mps 734 mmHg 76%
    08:00 +10°C° 0 mm 8 mps 735 mmHg 71%
    09:00 +11°C° 0 mm 8 mps 736 mmHg 67%
    10:00 +11°C° 0.1 mm 8 mps 736 mmHg 70%
    11:00 +11°C° 0.1 mm 7 mps 736 mmHg 73%
    12:00 +11°C° 0.1 mm 6 mps 736 mmHg 76%
    13:00 +14°C° 0 mm 7 mps 737 mmHg 63%
    14:00 +16°C° 0 mm 8 mps 737 mmHg 51%
    15:00 +18°C° 0 mm 9 mps 737 mmHg 38%
    16:00 +17°C° 0 mm 8 mps 738 mmHg 40%
    17:00 +17°C° 0 mm 7 mps 738 mmHg 42%
    18:00 +16°C° 0 mm 6 mps 738 mmHg 43%
    19:00 +14°C° 0 mm 5 mps 739 mmHg 50%
    20:00 +12°C° 0 mm 4 mps 739 mmHg 56%
    21:00 +11°C° 0 mm 3 mps 739 mmHg 63%
    22:00 +10°C° 0.2 mm 3 mps 739 mmHg 69%
    23:00 +10°C° 0.2 mm 3 mps 739 mmHg 75%

    30 May, Wednesday

    Time Temperature Precipitation Wind Pressure Humidity
    00:00 +10°C° 0.2 mm 3 mps 739 mmHg 81%
    01:00 +9°C° 0.1 mm 3 mps 738 mmHg 85%
    02:00 +9°C° 0.1 mm 2 mps 738 mmHg 89%
    03:00 +8°C° 0.1 mm 2 mps 738 mmHg 93%
    04:00 +9°C° 0.2 mm 2 mps 738 mmHg 92%
    05:00 +10°C° 0.2 mm 2 mps 737 mmHg 91%
    06:00 +10°C° 0.2 mm 2 mps 737 mmHg 90%
    07:00 +12°C° 0.1 mm 3 mps 737 mmHg 85%
    08:00 +13°C° 0.1 mm 3 mps 736 mmHg 79%
    09:00 +16°C° 0.1 mm 3 mps 736 mmHg 74%
    10:00 +18°C° 0 mm 4 mps 735 mmHg 60%
    11:00 +21°C° 0 mm 5 mps 734 mmHg 47%
    12:00 +24°C° 0 mm 6 mps 734 mmHg 33%
    13:00 +25°C° 0 mm 5 mps 733 mmHg 33%
    14:00 +25°C° 0 mm 5 mps 733 mmHg 33%
    15:00 +25°C° 0 mm 5 mps 732 mmHg 33%
    16:00 +23°C° 0 mm 5 mps 732 mmHg 37%
    17:00 +23°C° 0 mm 4 mps 732 mmHg 40%
    18:00 +22°C° 0 mm 4 mps 732 mmHg 44%
    19:00 +19°C° 1.1 mm 4 mps 733 mmHg 58%
    20:00 +15°C° 1.1 mm 4 mps 733 mmHg 73%
    21:00 +11°C° 1.1 mm 4 mps 734 mmHg 87%
    22:00 +11°C° 0.1 mm 4 mps 734 mmHg 87%
    23:00 +11°C° 0.1 mm 4 mps 735 mmHg 87%
    Show more